LQKJS SBRJ-SBSP

Flight info

Callsign LQKJS
Flight time 0h 48m
Altitude 32000
Route NAXOP UZ45 IBDAL
Aircraft B733/M-SDE2E3FHIRW/S

Departure

Time 2026-05-05 18:47
Airport Santos Dumont Airport (SBRJ)

Arrival

Time 2026-05-05 19:35
Airport Congonhas–Deputado Freitas Nobre Airport (SBSP)
Time Latitude Longitude Altitude Speed Heading
2026-05-05 18:15 -22.90851 -43.16627 26 ft 0 kts 265°
2026-05-05 18:36 -22.90850 -43.16615 26 ft 2 kts 265°
2026-05-05 18:37 -22.90849 -43.16599 26 ft 2 kts 265°
2026-05-05 18:37 -22.90848 -43.16583 25 ft 2 kts 265°
2026-05-05 18:37 -22.90849 -43.16568 25 ft 2 kts 308°
2026-05-05 18:37 -22.90858 -43.16561 25 ft 0 kts 351°
2026-05-05 18:38 -22.90866 -43.16561 25 ft 0 kts 357°
2026-05-05 18:41 -22.90861 -43.16561 25 ft 2 kts 356°
2026-05-05 18:41 -22.90834 -43.16563 25 ft 5 kts 355°
2026-05-05 18:42 -22.90789 -43.16568 25 ft 7 kts 355°
2026-05-05 18:42 -22.90721 -43.16575 25 ft 11 kts 355°
2026-05-05 18:42 -22.90631 -43.16584 25 ft 14 kts 354°
2026-05-05 18:42 -22.90552 -43.16591 25 ft 5 kts 355°
2026-05-05 18:43 -22.90526 -43.16594 25 ft 1 kts 355°
2026-05-05 18:43 -22.90514 -43.16592 25 ft 1 kts 25°
2026-05-05 18:43 -22.90498 -43.16576 25 ft 5 kts 56°
2026-05-05 18:43 -22.90489 -43.16522 24 ft 9 kts 83°
2026-05-05 18:44 -22.90486 -43.16500 24 ft 0 kts 83°
2026-05-05 18:44 -22.90486 -43.16499 24 ft 1 kts 85°
2026-05-05 18:44 -22.90488 -43.16472 24 ft 6 kts 92°
2026-05-05 18:45 -22.90483 -43.16399 22 ft 13 kts 86°
2026-05-05 18:45 -22.90520 -43.16328 20 ft 5 kts 173°
2026-05-05 18:45 -22.90523 -43.16328 20 ft 1 kts 174°
2026-05-05 18:45 -22.90535 -43.16327 20 ft 0 kts 174°
2026-05-05 18:46 -22.90543 -43.16326 20 ft 6 kts 175°
2026-05-05 18:46 -22.90878 -43.16304 20 ft 94 kts 176°
2026-05-05 18:46 -22.91752 -43.16249 261 ft 142 kts 175°
2026-05-05 18:47 -22.92615 -43.15782 1025 ft 150 kts 132°
2026-05-05 18:47 -22.93520 -43.15097 1692 ft 161 kts 160°
2026-05-05 18:47 -22.94335 -43.14521 2857 ft 138 kts 135°
2026-05-05 18:47 -22.94972 -43.13824 3613 ft 135 kts 139°
2026-05-05 18:48 -22.95689 -43.13071 3763 ft 152 kts 139°
2026-05-05 18:48 -22.96492 -43.12236 4348 ft 163 kts 139°
2026-05-05 18:48 -22.97320 -43.11385 5064 ft 167 kts 138°
2026-05-05 18:48 -22.98200 -43.10536 5792 ft 169 kts 139°
2026-05-05 18:49 -22.99085 -43.09680 6497 ft 174 kts 139°
2026-05-05 18:49 -22.99988 -43.08802 7263 ft 176 kts 139°
2026-05-05 18:49 -23.00729 -43.07760 7840 ft 178 kts 104°
2026-05-05 18:49 -23.00568 -43.06459 7998 ft 180 kts 58°
2026-05-05 18:50 -23.00151 -43.05053 8088 ft 215 kts 95°
2026-05-05 18:50 -23.00573 -43.03348 8107 ft 251 kts 115°
2026-05-05 18:50 -23.01512 -43.01683 8016 ft 255 kts 131°
2026-05-05 18:50 -23.02885 -43.00359 7964 ft 278 kts 148°
2026-05-05 18:51 -23.04686 -42.99520 7969 ft 279 kts 167°
2026-05-05 18:51 -23.06648 -42.99377 7982 ft 281 kts 187°
2026-05-05 18:51 -23.08527 -42.99957 7991 ft 281 kts 206°
2026-05-05 18:51 -23.10134 -43.01221 7992 ft 282 kts 226°
2026-05-05 18:52 -23.11234 -43.02989 7984 ft 282 kts 246°
2026-05-05 18:52 -23.11707 -43.05056 7998 ft 284 kts 266°
2026-05-05 18:52 -23.11484 -43.07202 7998 ft 285 kts 287°
2026-05-05 18:52 -23.10587 -43.09137 8002 ft 286 kts 304°
2026-05-05 18:53 -23.09410 -43.10905 7997 ft 287 kts 306°
2026-05-05 18:53 -23.08228 -43.12661 7996 ft 286 kts 305°
2026-05-05 18:53 -23.07048 -43.14417 7994 ft 286 kts 305°
2026-05-05 18:53 -23.06062 -43.16267 8031 ft 283 kts 286°
2026-05-05 18:54 -23.05893 -43.18409 8334 ft 285 kts 260°
2026-05-05 18:54 -23.06620 -43.20401 8654 ft 285 kts 233°
2026-05-05 18:54 -23.08063 -43.21852 8981 ft 285 kts 214°
2026-05-05 18:54 -23.09709 -43.23112 9309 ft 286 kts 219°
2026-05-05 18:55 -23.11013 -43.24764 9642 ft 289 kts 239°
2026-05-05 18:55 -23.11934 -43.26734 9981 ft 291 kts 243°
2026-05-05 18:55 -23.12823 -43.28728 10310 ft 293 kts 243°
2026-05-05 18:55 -23.13722 -43.30741 10641 ft 294 kts 243°
2026-05-05 18:56 -23.14634 -43.32778 11008 ft 296 kts 243°
2026-05-05 18:56 -23.15540 -43.34799 11386 ft 298 kts 243°
2026-05-05 18:56 -23.16449 -43.36829 11765 ft 299 kts 243°
2026-05-05 18:56 -23.17373 -43.38890 12147 ft 301 kts 243°
2026-05-05 18:57 -23.18307 -43.40974 12531 ft 303 kts 243°
2026-05-05 18:57 -23.19240 -43.43056 12912 ft 305 kts 243°
2026-05-05 18:57 -23.20171 -43.45134 13290 ft 307 kts 243°
2026-05-05 18:57 -23.21125 -43.47265 13675 ft 308 kts 243°
2026-05-05 18:58 -23.22075 -43.49388 14058 ft 310 kts 243°
2026-05-05 18:58 -23.23024 -43.51510 14437 ft 312 kts 243°
2026-05-05 18:58 -23.23980 -43.53646 14818 ft 313 kts 243°
2026-05-05 18:58 -23.24949 -43.55815 15202 ft 315 kts 243°
2026-05-05 18:59 -23.25907 -43.57961 15580 ft 316 kts 243°
2026-05-05 18:59 -23.26875 -43.60144 15957 ft 318 kts 244°
2026-05-05 18:59 -23.27837 -43.62302 16342 ft 319 kts 243°
2026-05-05 18:59 -23.28825 -43.64504 16725 ft 320 kts 243°
2026-05-05 19:00 -23.29806 -43.66707 17074 ft 322 kts 244°
2026-05-05 19:00 -23.30801 -43.68948 17456 ft 324 kts 244°
2026-05-05 19:00 -23.31784 -43.71159 17833 ft 326 kts 244°
2026-05-05 19:00 -23.32796 -43.73435 18220 ft 328 kts 244°
2026-05-05 19:01 -23.33819 -43.75735 18609 ft 329 kts 244°
2026-05-05 19:01 -23.34832 -43.78013 18992 ft 331 kts 243°
2026-05-05 19:01 -23.35869 -43.80345 19382 ft 332 kts 243°
2026-05-05 19:01 -23.36889 -43.82641 19765 ft 334 kts 243°
2026-05-05 19:02 -23.37927 -43.84978 20153 ft 335 kts 243°
2026-05-05 19:02 -23.38953 -43.87288 20534 ft 337 kts 243°
2026-05-05 19:02 -23.39986 -43.89617 20918 ft 338 kts 243°
2026-05-05 19:02 -23.41040 -43.91993 21307 ft 339 kts 243°
2026-05-05 19:03 -23.42077 -43.94331 21690 ft 340 kts 243°
2026-05-05 19:03 -23.43120 -43.96684 22074 ft 340 kts 243°
2026-05-05 19:03 -23.44177 -43.99070 22462 ft 341 kts 242°
2026-05-05 19:03 -23.45221 -44.01431 22845 ft 342 kts 242°
2026-05-05 19:04 -23.46264 -44.03788 23227 ft 343 kts 242°
2026-05-05 19:04 -23.47333 -44.06203 23616 ft 344 kts 242°
2026-05-05 19:04 -23.48384 -44.08581 23999 ft 345 kts 242°
2026-05-05 19:04 -23.49454 -44.11004 24387 ft 346 kts 242°
2026-05-05 19:05 -23.50511 -44.13398 24770 ft 347 kts 242°
2026-05-05 19:05 -23.51527 -44.15837 24984 ft 354 kts 248°
2026-05-05 19:05 -23.52234 -44.18534 25031 ft 374 kts 254°
2026-05-05 19:05 -23.52865 -44.21384 24990 ft 391 kts 254°
2026-05-05 19:06 -23.53523 -44.24339 24987 ft 395 kts 254°
2026-05-05 19:06 -23.54184 -44.27261 25010 ft 397 kts 254°
2026-05-05 19:06 -23.54859 -44.30227 25024 ft 397 kts 254°
2026-05-05 19:06 -23.55529 -44.33161 25024 ft 397 kts 254°
2026-05-05 19:07 -23.56205 -44.36124 25022 ft 397 kts 254°
2026-05-05 19:07 -23.56653 -44.38087 25021 ft 397 kts 254°
2026-05-05 19:07 -23.57553 -44.42029 25021 ft 397 kts 254°
2026-05-05 19:07 -23.58235 -44.45022 25021 ft 397 kts 254°
2026-05-05 19:08 -23.58906 -44.47967 25021 ft 397 kts 254°
2026-05-05 19:08 -23.59577 -44.50915 25021 ft 397 kts 254°
2026-05-05 19:08 -23.60252 -44.53884 25021 ft 397 kts 254°
2026-05-05 19:08 -23.60930 -44.56867 25025 ft 397 kts 254°
2026-05-05 19:09 -23.61593 -44.59790 25064 ft 396 kts 254°
2026-05-05 19:09 -23.62266 -44.62757 25076 ft 397 kts 254°
2026-05-05 19:09 -23.62935 -44.65713 25065 ft 397 kts 254°
2026-05-05 19:09 -23.63380 -44.67683 25049 ft 397 kts 254°
2026-05-05 19:10 -23.64054 -44.70674 25076 ft 397 kts 254°
2026-05-05 19:10 -23.64721 -44.73635 25076 ft 397 kts 254°
2026-05-05 19:10 -23.65616 -44.77602 25074 ft 397 kts 255°
2026-05-05 19:10 -23.66281 -44.80553 25077 ft 397 kts 255°
2026-05-05 19:11 -23.66945 -44.83498 25076 ft 397 kts 255°
2026-05-05 19:11 -23.67614 -44.86471 25075 ft 397 kts 255°
2026-05-05 19:11 -23.68277 -44.89420 25075 ft 397 kts 255°
2026-05-05 19:11 -23.68940 -44.92371 25075 ft 397 kts 255°
2026-05-05 19:12 -23.69605 -44.95335 25075 ft 397 kts 255°
2026-05-05 19:12 -23.70275 -44.98326 25075 ft 397 kts 255°
2026-05-05 19:12 -23.70936 -45.01274 25075 ft 397 kts 255°
2026-05-05 19:12 -23.71596 -45.04227 25075 ft 397 kts 255°
2026-05-05 19:13 -23.72267 -45.07230 25075 ft 397 kts 255°
2026-05-05 19:13 -23.72926 -45.10182 25075 ft 397 kts 255°
2026-05-05 19:13 -23.73588 -45.13149 25075 ft 397 kts 255°
2026-05-05 19:13 -23.74248 -45.16112 25075 ft 397 kts 255°
2026-05-05 19:14 -23.74911 -45.19093 25075 ft 397 kts 255°
2026-05-05 19:14 -23.75570 -45.22056 25080 ft 395 kts 255°
2026-05-05 19:14 -23.76004 -45.25044 25074 ft 396 kts 263°
2026-05-05 19:14 -23.76216 -45.28062 25084 ft 397 kts 264°
2026-05-05 19:15 -23.76423 -45.31125 25101 ft 397 kts 264°
2026-05-05 19:15 -23.76640 -45.34173 25104 ft 397 kts 263°
2026-05-05 19:15 -23.76863 -45.37230 25103 ft 397 kts 263°
2026-05-05 19:15 -23.77088 -45.40297 25102 ft 397 kts 263°
2026-05-05 19:16 -23.77310 -45.43319 25102 ft 397 kts 263°
2026-05-05 19:16 -23.77534 -45.46375 25102 ft 397 kts 263°
2026-05-05 19:16 -23.77757 -45.49410 25102 ft 397 kts 263°
2026-05-05 19:16 -23.77981 -45.52470 25102 ft 397 kts 263°
2026-05-05 19:17 -23.78202 -45.55500 25102 ft 397 kts 263°
2026-05-05 19:17 -23.78425 -45.58573 25102 ft 397 kts 263°
2026-05-05 19:17 -23.78647 -45.61630 25102 ft 397 kts 263°
2026-05-05 19:17 -23.78868 -45.64681 25102 ft 397 kts 263°
2026-05-05 19:18 -23.79085 -45.67702 25058 ft 398 kts 264°
2026-05-05 19:18 -23.79303 -45.70730 24917 ft 398 kts 264°
2026-05-05 19:18 -23.79522 -45.73797 24740 ft 397 kts 264°
2026-05-05 19:18 -23.79738 -45.76819 24565 ft 395 kts 264°
2026-05-05 19:19 -23.79951 -45.79804 24349 ft 393 kts 264°
2026-05-05 19:19 -23.80163 -45.82787 23981 ft 391 kts 264°
2026-05-05 19:19 -23.80372 -45.85737 23595 ft 380 kts 264°
2026-05-05 19:19 -23.80575 -45.88605 23209 ft 370 kts 264°
2026-05-05 19:20 -23.80772 -45.91395 22764 ft 363 kts 264°
2026-05-05 19:20 -23.80965 -45.94136 22285 ft 357 kts 264°
2026-05-05 19:20 -23.81155 -45.96841 21804 ft 352 kts 264°
2026-05-05 19:20 -23.81342 -45.99508 21323 ft 347 kts 264°
2026-05-05 19:21 -23.81525 -46.02130 20850 ft 346 kts 264°
2026-05-05 19:21 -23.81711 -46.04786 20372 ft 347 kts 264°
2026-05-05 19:21 -23.81896 -46.07438 19893 ft 346 kts 264°
2026-05-05 19:21 -23.82078 -46.10069 19416 ft 344 kts 264°
2026-05-05 19:22 -23.82260 -46.12691 18938 ft 343 kts 264°
2026-05-05 19:22 -23.82438 -46.15269 18466 ft 341 kts 264°
2026-05-05 19:22 -23.82618 -46.17882 17986 ft 340 kts 264°
2026-05-05 19:22 -23.82796 -46.20478 17505 ft 337 kts 264°
2026-05-05 19:23 -23.82971 -46.23031 17029 ft 334 kts 265°
2026-05-05 19:23 -23.83144 -46.25548 16555 ft 332 kts 264°
2026-05-05 19:23 -23.83315 -46.28054 16080 ft 329 kts 264°
2026-05-05 19:23 -23.83484 -46.30542 15604 ft 327 kts 264°
2026-05-05 19:24 -23.83652 -46.33011 15130 ft 325 kts 264°
2026-05-05 19:24 -23.83818 -46.35465 14657 ft 323 kts 264°
2026-05-05 19:24 -23.83984 -46.37910 14181 ft 321 kts 264°
2026-05-05 19:24 -23.84147 -46.40323 13709 ft 319 kts 265°
2026-05-05 19:25 -23.84311 -46.42756 13230 ft 316 kts 265°
2026-05-05 19:25 -23.84471 -46.45147 12755 ft 314 kts 265°
2026-05-05 19:25 -23.84635 -46.47506 12282 ft 311 kts 264°
2026-05-05 19:25 -23.84793 -46.49851 12093 ft 307 kts 265°
2026-05-05 19:26 -23.84947 -46.52198 11998 ft 308 kts 265°
2026-05-05 19:26 -23.85101 -46.54522 12004 ft 308 kts 265°
2026-05-05 19:26 -23.85256 -46.56861 12010 ft 309 kts 265°
2026-05-05 19:26 -23.85414 -46.59233 12019 ft 309 kts 265°
2026-05-05 19:27 -23.85491 -46.61578 12010 ft 310 kts 276°
2026-05-05 19:27 -23.84722 -46.63758 12000 ft 312 kts 305°
2026-05-05 19:27 -23.83052 -46.65299 11662 ft 317 kts 333°
2026-05-05 19:27 -23.81073 -46.66332 11258 ft 312 kts 333°
2026-05-05 19:28 -23.79129 -46.67444 10849 ft 307 kts 330°
2026-05-05 19:28 -23.77290 -46.68591 10450 ft 304 kts 329°
2026-05-05 19:28 -23.75481 -46.69771 10047 ft 299 kts 328°
2026-05-05 19:28 -23.73715 -46.70951 9644 ft 295 kts 328°
2026-05-05 19:29 -23.71972 -46.72134 9240 ft 292 kts 328°
2026-05-05 19:29 -23.70257 -46.73307 8837 ft 288 kts 327°
2026-05-05 19:29 -23.68573 -46.74466 8432 ft 283 kts 327°
2026-05-05 19:29 -23.66911 -46.75613 8024 ft 277 kts 327°
2026-05-05 19:30 -23.65292 -46.76730 7621 ft 273 kts 327°
2026-05-05 19:30 -23.63684 -46.77840 7214 ft 269 kts 327°
2026-05-05 19:30 -23.62128 -46.78917 6814 ft 265 kts 327°
2026-05-05 19:30 -23.61089 -46.79637 6546 ft 263 kts 327°
2026-05-05 19:31 -23.58983 -46.81018 6002 ft 262 kts 338°
2026-05-05 19:31 -23.57818 -46.81302 5737 ft 262 kts 358°
2026-05-05 19:31 -23.57212 -46.81276 5605 ft 261 kts
2026-05-05 19:31 -23.54386 -46.79065 4936 ft 248 kts 57°
2026-05-05 19:32 -23.53466 -46.77528 4789 ft 235 kts 57°
2026-05-05 19:32 -23.52725 -46.76279 4786 ft 219 kts 57°
2026-05-05 19:32 -23.52104 -46.74842 4807 ft 200 kts 83°
2026-05-05 19:32 -23.52317 -46.73284 4812 ft 222 kts 117°
2026-05-05 19:33 -23.53373 -46.72100 4692 ft 213 kts 149°
2026-05-05 19:33 -23.54557 -46.71240 4345 ft 200 kts 147°
2026-05-05 19:33 -23.55686 -46.70453 4039 ft 182 kts 149°
2026-05-05 19:33 -23.56696 -46.69763 3853 ft 159 kts 149°
2026-05-05 19:34 -23.57560 -46.69173 3642 ft 137 kts 149°
2026-05-05 19:34 -23.58399 -46.68597 3461 ft 139 kts 149°
2026-05-05 19:34 -23.59212 -46.68052 3278 ft 132 kts 147°
2026-05-05 19:35 -23.60753 -46.66983 3008 ft 131 kts 149°
2026-05-05 19:35 -23.61544 -46.66441 2799 ft 137 kts 143°
2026-05-05 19:35 -23.62317 -46.65890 2620 ft 125 kts 146°
2026-05-05 19:35 -23.62897 -46.65488 2626 ft 40 kts 147°
2026-05-05 19:36 -23.63080 -46.65372 2633 ft 21 kts 168°
2026-05-05 19:36 -23.63098 -46.65370 2633 ft 3 kts 177°
2026-05-05 19:36 -23.63148 -46.65377 2634 ft 10 kts 192°
2026-05-05 19:36 -23.63172 -46.65438 2632 ft 15 kts 321°
2026-05-05 19:37 -23.63071 -46.65509 2628 ft 18 kts 337°
2026-05-05 19:37 -23.62939 -46.65565 2624 ft 21 kts 327°
2026-05-05 19:37 -23.62858 -46.65622 2621 ft 11 kts 328°
2026-05-05 19:37 -23.62814 -46.65659 2619 ft 0 kts 282°
2026-05-05 19:38 -23.62817 -46.65674 2619 ft 4 kts 251°
2026-05-05 19:38 -23.62840 -46.65719 2617 ft 0 kts 238°
2026-05-05 19:38 -23.62846 -46.65728 2617 ft 3 kts 238°
2026-05-05 19:38 -23.62848 -46.65733 2617 ft 0 kts 238°